EW3845 Weather Reports


time (UTC)temp
C
wind
direction
speed
KPH
gust
KPH
rain 1hr
cm
rain 24hr
cm
rain mn
cm
humidity
%
barometer
mb
20260831031530 16 254 0.0 0.0 0.00 0.05 0.05 90 1009.4
20260831030022 16 360 0.0 0.0 0.00 0.05 0.05 89 1009.4
20260831024525 16 360 0.0 0.0 0.00 0.05 0.05 89 1009.4
20260831023021 16 360 0.0 0.0 0.03 0.05 0.05 88 1009.1
20260831021519 17 360 0.0 0.0 0.05 0.05 0.05 87 1009.2
20260831020017 17 360 0.0 0.0 0.05 0.05 0.05 87 1009.1
20260831014515 17 360 0.0 0.0 0.05 0.05 0.05 85 1009.3
20260831013030 17 257 0.0 0.0 0.03 0.03 0.03 83 1009.6
20260831011517 17 225 0.0 0.0 0.00 0.00 0.00 80 1009.3
20260831010015 18 226 0.0 0.0 0.00 0.05 0.00 79 1009.3
20260831004513 18 225 0.0 0.0 0.00 0.05 0.00 79 1009.3
20260831003014 18 225 0.0 0.0 0.00 0.05 0.00 79 1009.4
20260831001518 18 225 0.0 0.0 0.00 0.05 0.00 78 1009.7
20260831000003 18 225 0.0 0.0 0.00 0.05 0.00 77 1009.8
20260830234502 18 230 0.0 0.0 0.00 0.05 0.00 77 1009.8
20260830233001 18 232 0.0 0.0 0.00 0.05 0.00 76 1009.7
20260830231607 18 238 0.0 0.0 0.00 0.05 0.00 76 1009.7
20260830230058 18 238 0.0 0.0 0.00 0.05 0.00 76 1009.8
20260830224607 19 238 0.0 0.0 0.00 0.05 0.00 76 1009.9
20260830223056 19 239 0.0 0.0 0.00 0.05 0.00 75 1009.9
20260830221554 19 240 0.0 0.0 0.00 0.05 0.00 75 1010.1
20260830220056 19 242 0.0 0.0 0.00 0.05 0.05 75 1010.2
20260830214553 19 248 0.0 0.0 0.00 0.05 0.05 75 1010.2
20260830213052 19 254 0.0 0.0 0.00 0.05 0.05 75 1010.4
20260830211551 19 360 0.0 0.0 0.00 0.05 0.05 75 1010.3
20260830210100 19 360 0.0 0.0 0.00 0.05 0.05 75 1010.5
20260830204554 19 360 0.0 0.0 0.00 0.05 0.05 76 1010.6
20260830203050 19 360 0.0 0.0 0.00 0.05 0.05 76 1010.6
20260830201554 19 360 0.0 0.0 0.00 0.05 0.05 76 1010.7
20260830200104 19 360 0.0 0.0 0.00 0.05 0.05 75 1010.9
20260830194608 19 360 0.0 0.0 0.00 0.05 0.05 75 1011.0
20260830193048 19 360 0.0 0.0 0.00 0.05 0.05 75 1011.0
20260830191547 19 360 0.0 0.0 0.00 0.05 0.05 76 1011.2
20260830190047 20 360 0.0 0.0 0.00 0.15 0.05 75 1011.0
20260830184547 20 360 0.0 0.0 0.00 0.15 0.05 74 1011.0
20260830183047 20 360 0.0 0.0 0.00 0.15 0.05 74 1011.0
20260830182554 20 360 0.0 0.0 0.00 0.71 0.05 74 1011.3
20260830182042 20 360 0.0 0.0 0.00 0.71 0.05 73 1011.3
20260830181656 20 360 0.0 0.0 0.00 0.15 0.05 73 1011.0
20260830181556 20 360 0.0 0.0 0.00 0.71 0.05 73 1011.2
20260830181041 21 360 0.0 0.0 0.00 0.71 0.05 73 1011.3
20260830180553 21 360 0.0 0.0 0.00 0.71 0.05 72 1011.3
20260830180141 20 360 0.0 0.0 0.00 0.23 0.05 72 1011.1
20260830180041 21 360 0.0 0.0 0.00 1.19 0.05 72 1011.3
20260830175554 21 360 0.0 0.0 0.00 1.19 0.05 72 1011.4
20260830175042 21 360 0.0 0.0 0.00 1.19 0.05 72 1011.5
20260830174656 21 360 0.0 0.0 0.00 0.23 0.05 71 1011.2
20260830174553 21 360 0.0 0.0 0.00 1.19 0.05 71 1011.5
20260830174042 21 360 0.0 0.0 0.00 1.19 0.05 72 1011.4
20260830173556 21 360 0.0 0.0 0.00 1.19 0.05 71 1011.5
20260830173144 21 360 0.0 0.0 0.00 0.23 0.05 72 1011.3
20260830173044 21 360 0.0 0.0 0.00 1.19 0.05 72 1011.6
20260830172556 21 360 0.0 0.0 0.00 1.19 0.05 71 1011.6
20260830172045 21 360 0.0 0.0 0.00 1.19 0.05 70 1011.5
20260830171701 21 360 0.0 0.0 0.00 0.23 0.05 70 1011.3
20260830171558 21 360 0.0 0.0 0.00 1.19 0.05 70 1011.6
20260830171046 22 360 0.0 0.0 0.00 1.19 0.05 70 1011.6
20260830170559 22 360 0.0 0.0 0.00 1.19 0.05 70 1011.6
20260830170047 22 360 0.0 0.0 0.00 1.19 0.05 68 1011.6
20260830170001 21 360 0.0 0.0 0.00 0.23 0.05 68 1011.3
20260830165600 22 360 0.0 0.0 0.00 1.19 0.05 68 1011.7
20260830165046 22 360 0.0 0.0 0.00 1.19 0.05 68 1011.7
20260830164559 22 360 0.0 0.0 0.00 1.19 0.05 68 1011.7
20260830164514 22 360 0.0 0.0 0.00 0.23 0.05 68 1011.4
20260830164109 22 360 0.0 0.0 0.00 1.19 0.05 67 1011.9
20260830163559 22 360 0.0 0.0 0.00 1.19 0.05 67 1011.9
20260830163148 22 360 0.0 0.0 0.00 0.23 0.05 67 1011.5
20260830163047 22 360 0.0 0.0 0.00 1.19 0.05 66 1011.8
20260830162619 22 360 0.0 0.0 0.00 1.19 0.05 66 1011.8
20260830162043 22 360 0.0 0.0 0.00 1.19 0.05 66 1012.0
20260830161656 22 360 0.0 0.0 0.00 0.23 0.05 65 1011.8
20260830161555 22 287 0.0 0.0 0.00 1.19 0.05 65 1012.0
20260830161043 22 288 0.0 0.0 0.00 1.19 0.05 65 1012.0
20260830160554 22 360 0.0 0.0 0.00 1.19 0.05 66 1012.0
20260830160143 22 360 0.0 0.0 0.00 0.23 0.05 66 1011.7
20260830160042 22 360 0.0 0.0 0.00 1.19 0.05 66 1011.9
20260830155552 22 285 0.0 0.0 0.00 1.19 0.05 66 1011.9
20260830155100 22 360 0.0 0.0 0.00 1.19 0.05 65 1011.9
20260830154653 22 285 0.0 0.0 0.00 0.23 0.05 66 1011.6
20260830154551 22 285 0.0 0.0 0.00 1.19 0.05 66 1011.8
20260830154101 22 285 0.0 0.0 0.00 1.19 0.05 65 1011.8
20260830153047 22 294 0.0 0.0 0.00 0.23 0.05 65 1011.6
20260830151541 22 291 0.0 0.0 0.00 0.23 0.05 65 1011.7
20260830150044 22 360 0.0 0.0 0.00 0.23 0.05 64 1011.8
20260830144532 22 360 0.0 0.0 0.00 0.23 0.05 63 1011.9
20260830143030 22 360 0.0 0.0 0.00 0.23 0.05 65 1011.9
20260830141631 22 360 0.0 0.0 0.00 0.23 0.05 67 1011.8
20260830140028 22 286 0.0 0.0 0.00 0.23 0.05 67 1011.9
20260830134533 22 284 0.0 0.0 0.00 0.23 0.05 67 1011.9
20260830133030 22 290 0.0 0.0 0.00 0.23 0.05 67 1011.9
20260830131534 22 288 0.0 0.0 0.00 0.23 0.05 69 1011.9
20260830130024 22 288 0.0 0.0 0.00 0.23 0.05 69 1012.0
20260830124524 22 360 0.0 0.0 0.00 0.23 0.05 70 1012.1
20260830123022 22 289 0.0 0.0 0.00 0.23 0.05 70 1012.0
20260830121522 21 286 0.0 0.0 0.00 0.23 0.05 73 1012.0
20260830120018 21 287 0.0 0.0 0.00 0.23 0.05 73 1012.0
20260830114520 21 360 0.0 0.0 0.00 0.23 0.05 74 1011.8
20260830113019 21 286 0.0 0.0 0.00 0.23 0.05 74 1011.8
20260830111522 21 360 0.0 0.0 0.00 0.23 0.05 73 1011.8
20260830110016 21 294 0.0 0.0 0.00 0.23 0.05 74 1011.8
20260830104517 21 360 0.0 0.0 0.00 0.23 0.05 73 1011.8
20260830103016 21 292 0.0 0.0 0.00 0.23 0.05 75 1011.9
20260830101510 21 287 0.0 0.0 0.00 0.23 0.05 75 1011.6
20260830100012 20 360 0.0 0.0 0.00 0.23 0.05 77 1011.6
20260830094505 20 289 0.0 0.0 0.00 0.23 0.05 79 1011.6
20260830093003 20 306 0.0 0.0 0.00 0.23 0.05 78 1011.6
20260830091505 19 293 0.0 0.0 0.00 0.23 0.05 79 1011.3
20260830090100 19 299 0.0 0.0 0.00 0.23 0.05 79 1011.2
20260830084558 19 290 0.0 0.0 0.00 0.23 0.05 79 1011.0
20260830084052 19 288 0.0 0.0 0.00 1.19 0.05 80 1011.3
20260830083603 19 360 0.0 0.0 0.00 1.19 0.05 81 1011.2
20260830083050 19 360 0.0 0.0 0.00 1.19 0.05 80 1011.3
20260830083002 19 293 0.0 0.0 0.00 0.23 0.05 80 1011.0
20260830082600 19 360 0.0 0.0 0.00 1.19 0.05 81 1011.2
20260830082108 19 294 0.0 0.0 0.00 1.19 0.05 80 1011.1
20260830081659 18 289 0.0 0.0 0.00 0.23 0.05 80 1010.9
20260830081557 19 312 0.0 0.0 0.00 1.19 0.05 80 1011.1
20260830081045 19 290 0.0 0.0 0.00 1.19 0.05 80 1011.0
20260830080558 19 289 0.0 0.0 0.00 1.19 0.05 80 1010.9
20260830080151 18 288 0.0 0.0 0.00 0.23 0.05 81 1010.8
20260830080049 19 360 0.0 0.0 0.00 1.19 0.05 81 1011.0
20260830075618 18 360 0.0 0.0 0.00 1.19 0.05 81 1010.9
20260830075049 18 292 0.0 0.0 0.00 1.19 0.05 81 1010.7
20260830074601 18 288 0.0 0.0 0.00 1.19 0.05 81 1010.7
20260830074521 18 288 0.0 0.0 0.00 0.23 0.05 81 1010.5
20260830074112 18 360 0.0 0.0 0.00 1.19 0.05 81 1010.8
20260830073054 18 288 0.0 0.0 0.00 0.23 0.05 81 1010.3
20260830071553 18 360 0.0 0.0 0.00 0.23 0.05 82 1010.2
20260830070047 18 298 0.0 0.0 0.00 0.23 0.05 82 1010.1
20260830064600 17 252 0.0 0.0 0.00 0.23 0.05 83 1010.0
20260830063044 17 360 0.0 0.0 0.00 0.23 0.05 83 1009.8
20260830061545 17 360 0.0 0.0 0.00 0.23 0.05 83 1009.6
20260830060041 17 285 0.0 0.0 0.00 0.23 0.05 84 1009.4
20260830054543 17 360 0.0 0.0 0.00 0.23 0.05 85 1009.4
20260830053039 16 290 0.0 0.0 0.00 0.23 0.05 85 1009.2
20260830051537 16 360 0.0 0.0 0.00 0.23 0.05 85 1009.1
20260830050037 16 360 0.0 0.0 0.00 0.23 0.05 85 1008.9
20260830044554 16 295 0.0 0.0 0.00 0.23 0.05 85 1008.9
20260830043036 16 360 0.0 0.0 0.00 0.23 0.05 85 1008.8
20260830041549 17 360 0.0 0.0 0.00 0.23 0.05 85 1008.9
20260830040035 17 360 0.0 0.0 0.00 0.23 0.05 85 1008.8
20260830034530 17 285 0.0 0.0 0.00 0.23 0.05 84 1008.9
20260830033029 17 360 0.0 0.0 0.00 0.23 0.05 84 1008.8